Regional Weather Roundup
Issued by NWS

Home | Current Version | Previous Version | Graphics & Text | Print | Product List | Glossary On
Versions: 1 2 3 4 5 6 7 8 9 10 11 12 13 14 15 16 17 18 19 20 21 22 23 24 25 26 27 28 29 30 31 32 33 34 35 36 37 38 39 40 41 42 43 44 45 46 47 48 49 50
559
ASUS45 KBOU 180707
RWRCO

WEATHER ROUNDUP FOR COLORADO
NATIONAL WEATHER SERVICE DENVER/BOULDER CO
100 AM MDT FRI AUG 18 2017

NOTE: "FAIR" INDICATES FEW OR NO CLOUDS BELOW 12000 FEET WITH NO
SIGNIFICANT WEATHER AND/OR OBSTRUCTIONS TO VISIBILITY.

COZ001>005-013-030-031-180800-
...NORTHWEST COLORADO...

CITY           SKY/WX    TMP DP  RH WIND       PRES   REMARKS
CRAIG          MOCLDY    54  40  59 NW5       30.26R
HAYDEN         FAIR      58  38  47 CALM      30.29S
MEEKER         MOCLDY    61  41  47 E6        30.29R
RABBIT EARS PA FAIR      48  32  53 NW7       30.55S
STEAMBOAT SPGS FAIR      59  41  51 SE5       30.29F
WALDEN         FAIR      46  37  71 SE9       30.38F
$$

COZ006>008-011-180800-
...WEST CENTRAL VALLEYS...

CITY           SKY/WX    TMP DP  RH WIND       PRES   REMARKS
GRAND JUNCTION FAIR      68  38  33 SE13      30.13S
MONTROSE       FAIR      64  37  36 SE13      30.23S
EAGLE          MOCLDY    54  36  50 E5        30.33R
RIFLE          FAIR      64  38  38 CALM      30.21S
DELTA          FAIR      64  35  33 NE6       30.20S
NUCLA          FAIR      63  32  31 SE9       30.27S
$$

COZ017>023-064>068-180800-
...SOUTHWEST COLORADO...

CITY           SKY/WX    TMP DP  RH WIND       PRES   REMARKS
DURANGO        FAIR      55  35  47 NE3       30.29S
CORTEZ         FAIR      55  35  47 E5        30.24R
PAGOSA SPRINGS FAIR      51  32  48 CALM      30.38S
TELLURIDE      FAIR      51  32  48 SE6       30.50S
WOLF CREEK PAS FAIR      46  27  46 CALM      30.72S
$$

COZ009-010-012-014-032>034-037-058>063-180800-
...CENTRAL COLORADO...

CITY           SKY/WX    TMP DP  RH WIND       PRES   REMARKS
ASPEN          FAIR      48  38  68 SW8       30.38S
BUENA VISTA    FAIR      48  37  64 NW3       30.40S
COPPER MTN     NOT AVBL
BERTHOUD PASS  FAIR      39  34  81 NW29      30.64S
COTTONWOOD PAS FAIR      55  30  38 W6        30.52S
GUNNISON       FAIR      47  38  71 CALM      30.41R
KREMMLING      FAIR      54  41  62 CALM      30.36S
LEADVILLE      FAIR      37  32  82 CALM      30.51R
MONARCH PASS   FAIR      45  28  53 W10       30.77S
SALIDA         FAIR      53  39  58 CALM      30.45R
SUNLIGHT       FAIR      50  28  43 W3        30.61S
WILKERSON PASS FAIR      48  28  46 NW5       30.64S
$$

COZ069>075-180800-
...SAN LUIS VALLEY/SANGRE DE CRISTO MOUNTAINS...

CITY           SKY/WX    TMP DP  RH WIND       PRES   REMARKS
ALAMOSA        FAIR      48  40  73 S5        30.36S
DEL NORTE      FAIR      55  36  48 W16       30.40S
LA VETA PASS   NOT AVBL
SAGUACHE       FAIR      50  34  53 NW9       30.40S
$$

COZ035-036-038>040-180800-
...NORTHERN COLORADO FRONT RANGE...

CITY           SKY/WX    TMP DP  RH WIND       PRES   REMARKS
DENVER INTL AP FAIR      66  41  40 W10       30.15R
DMNS CITY PARK   N/A     64  42  45 N9G24     30.15R
AURORA         CLEAR     61  42  49 S9        30.17S
FRONT RANGE AP FAIR      66  43  42 SW9G16    30.16S
ERIE MUNI ARPT FAIR      58  45  61 S3        30.19F
BOULDER MUN AP FAIR      64  41  42 W5        30.16R
CENTENNIAL     FAIR      61  41  47 VRB3      30.18F
BROOMFIELD     NOT AVBL
FORT COLLINS   FAIR      64  48  56 N9        30.14R
LONGMONT       FAIR      62  46  56 SE3       30.17R
$$

COZ041-046-047-076>085-087-088-180800-
...PIKES PEAK/PALMER DIVIDE AND SOUTHERN FOOTHILLS...

CITY           SKY/WX    TMP DP  RH WIND       PRES   REMARKS
COLO. SPRINGS  FAIR      57  46  66 N7        30.24F
A. F. ACADEMY  FAIR      52  42  68 NE10      30.25S
SCHRIEVER AFB  FAIR      60  44  55 CALM      30.23F
CHEYENNE MTN   FAIR      69  30  23 W10       30.23F
ELLICOTT       FAIR     N/A N/A N/A CALM      30.22F
FALCON         FAIR      56  41  57 W7        30.28F
FORT CARSON    FAIR      58  44  61 CALM      30.20F
LIMON          FAIR      50  49  96 N5        30.16F
MONUMENT HILL  FAIR      55  37  50 SW12      30.29F
CANON CITY     CLEAR     63  45  51 W12       30.19F
WALSENBURG     FAIR      59  45  58 CALM      30.24S
TRINIDAD       FAIR      59  46  62 W13       30.22F
$$

COZ042>045-048>051-090-091-180800-
...NORTHEAST COLORADO...

CITY           SKY/WX    TMP DP  RH WIND       PRES   REMARKS
GREELEY ARPT   FAIR      62  51  67 NE3       30.12S
AKRON          FAIR      62  47  57 W5        30.10R
BURLINGTON     FAIR      62  58  86 S10       30.09S
WRAY           NOT AVBL
YUMA           FAIR      63  48  59 NW9       30.06S
STERLING       FAIR      57  52  82 N7        30.07R
HOLYOKE        FAIR      61  55  82 CALM      30.05F
FORT MORGAN    FAIR      62  45  52 N15       30.11R
$$

COZ086-089-092>099-180800-
...SOUTHEAST COLORADO...

CITY           SKY/WX    TMP DP  RH WIND       PRES   REMARKS
PUEBLO         FAIR      61  49  64 W6        30.13F
LA JUNTA       FAIR      64  54  69 NW9       30.09S
LAMAR          FAIR      68  59  73 N6        30.03S
SPRINGFIELD      N/A     60  60 100 SE10      30.11F
$$




USA.gov is the U.S. government's official web portal to all federal, state and local government web resources and services.